Weather History for Jeju Airport, South Korea

Change the Weather History Date:

Sunday, December 29, 2013

  Actual Average Record
Temperature  
Mean Temperature 40 °F -  
Max Temperature 44 °F 44 °F 55 °F (1998)
Min Temperature 37 °F 36 °F 33 °F (2005)
Degree Days  
Heating Degree Days 24    
Moisture  
Dew Point 24 °F    
Average Humidity 51    
Maximum Humidity 75    
Minimum Humidity 36    
Precipitation  
Precipitation 0.00 in - - ()
Sea Level Pressure  
Sea Level Pressure 30.20 in    
Wind  
Wind Speed 13 mph ()    
Max Wind Speed 23 mph    
Max Gust Speed -    
Visibility 5.3 miles    
Events Rain , Snow    
Averages and records for this station are not official NWS values.
T = Trace of Precipitation, MM = Missing Value Source: Averaged Metar Reports

Daily Weather History Graph

Daily Weather History Graph

Search for Another Location

Airport:

Trip Planner

Search our weather history database for the weather conditions in past years. The results will help you decide how hot, cold, wet, or windy it might be!

Date:

Astronomy

Dec. 29, 2013 Rise Set
Actual Time 7:37 AM KST 5:34 PM KST
Civil Twilight 7:09 AM KST 6:02 PM KST
Nautical Twilight 6:38 AM KST 6:33 PM KST
Astronomical Twilight 6:08 AM KST 7:03 PM KST
Moon 3:46 AM KST (12/29) 2:38 PM KST (12/29)
Length of Visible Light 10h 52m
Length of Day
9h 57m
Waning Crescent, 15% of the Moon is Illuminated
Dec 29
Waning Crescent
Jan 1
New
Jan 8
First Quarter
Jan 16
Full
Jan 24
Last Quarter

Hourly Weather History & Observations

Time (KST) Temp. Windchill Dew Point Humidity Pressure Visibility Wind Dir Wind Speed Gust Speed Precip Events Conditions
12:00 AM 37.4 °F 32.1 °F 30.2 °F 75% 30.21 in 3.7 mi North 6.9 mph - N/A   Mostly Cloudy
1:00 AM 39.2 °F 31.6 °F 26.6 °F 61% 30.18 in 3.7 mi NNW 12.7 mph - N/A   Mostly Cloudy
2:00 AM 37.4 °F 26.6 °F 30.2 °F 75% 30.21 in 3.7 mi NNW 21.9 mph - N/A Rain , Snow Light Snow Showers
3:00 AM 39.2 °F 32.5 °F 28.4 °F 65% 30.18 in 3.7 mi NNW 10.4 mph - N/A Rain Light Rain Showers
3:47 AM 39.2 °F 28.7 °F 28.4 °F 65% 30.18 in - NNW 23.0 mph - N/A Rain Light Rain Showers
4:00 AM 39.2 °F 29.8 °F 28.4 °F 65% 30.18 in 3.7 mi NNW 18.4 mph - N/A Rain Light Rain Showers
5:00 AM 37.4 °F 26.4 °F 28.4 °F 70% 30.21 in 3.1 mi NW 23.0 mph - N/A Rain , Snow Light Snow Showers
6:00 AM 41.0 °F 32.5 °F 26.6 °F 57% 30.18 in 3.7 mi NW 17.3 mph - N/A Rain Light Rain Showers
7:00 AM 41.0 °F 31.4 °F 24.8 °F 53% 30.21 in 3.7 mi NW 21.9 mph - N/A Rain Light Rain Showers
8:00 AM 41.0 °F 32.5 °F 15.8 °F 36% 30.21 in 6.2 mi NW 17.3 mph - N/A   Mostly Cloudy
9:00 AM 41.0 °F 32.5 °F 23.0 °F 49% 30.21 in 6.2 mi NW 17.3 mph - N/A Rain Light Rain Showers
10:00 AM 42.8 °F 34.8 °F 21.2 °F 42% 30.24 in 6.2 mi NW 17.3 mph - N/A   Mostly Cloudy
11:00 AM 42.8 °F 35.4 °F 21.2 °F 42% 30.24 in 6.2 mi NW 15.0 mph - N/A   Mostly Cloudy
12:00 PM 42.8 °F 35.4 °F 21.2 °F 42% 30.24 in 6.2 mi NW 15.0 mph - N/A   Mostly Cloudy
1:00 PM 42.8 °F 35.4 °F 21.2 °F 42% 30.21 in 6.2 mi NW 15.0 mph - N/A   Mostly Cloudy
2:00 PM 44.6 °F 38.1 °F 23.0 °F 43% 30.18 in 6.2 mi NW 13.8 mph - N/A   Mostly Cloudy
3:00 PM 42.8 °F 34.8 °F 21.2 °F 42% 30.21 in 6.2 mi NW 17.3 mph - N/A   Mostly Cloudy
4:00 PM 42.8 °F 35.4 °F 21.2 °F 42% 30.18 in 6.2 mi NW 15.0 mph - N/A   Mostly Cloudy
5:00 PM 42.8 °F 35.8 °F 23.0 °F 46% 30.18 in 6.2 mi NW 13.8 mph - N/A   Mostly Cloudy
6:00 PM 42.8 °F 35.4 °F 23.0 °F 46% 30.21 in 6.2 mi NW 15.0 mph - N/A   Mostly Cloudy
7:00 PM 42.8 °F 37.0 °F 21.2 °F 42% 30.21 in 6.2 mi NW 10.4 mph - N/A   Mostly Cloudy
8:00 PM 42.8 °F 37.0 °F 17.6 °F 36% 30.21 in 6.2 mi NW 10.4 mph - N/A   Mostly Cloudy
9:00 PM 42.8 °F 38.0 °F 19.4 °F 39% 30.21 in 6.2 mi WNW 8.1 mph - N/A   Mostly Cloudy
10:00 PM 42.8 °F 38.6 °F 21.2 °F 42% 30.21 in 6.2 mi WNW 6.9 mph - N/A   Mostly Cloudy
11:00 PM 39.2 °F 35.0 °F 21.2 °F 49% 30.21 in 6.2 mi WSW 5.8 mph - N/A   Mostly Cloudy